sat.trackr.live / text

‹ back to catalog

INNOSAT 3 (RS92S0)

NORAD 64894 · 2025-155U

PAYLOAD ACTIVE UNKNOWN

§ Identity

Operator
Country
MALA
Launch date
2025-07-25
Launch site
VOSTO
Launch vehicle
Mass (kg)
RCS (m²)

Purposes: comms

External: N2YO · Heavens-Above · Gunter

§ Orbital elements

Epoch: 2026-09-19T22:14:35.845728Z

Period
92.84 min
Inclination
97.4583°
Eccentricity
0.0005154
Mean motion
15.50980373 rev/d
Perigee alt
410.4 km
Apogee alt
417.4 km
Semi-major
6,792.0 km
B*
6.9976e-4
RAAN
237.2333°
Arg perigee
153.5008°
Mean anomaly
206.6508°
Rev number
9,561

§ Raw data

INNOSAT 3 (RS92S0)1 64894U 25155U   26262.92680377  .00040668  00000+0  69976-3 0  99922 64894  97.4583 237.2333 0005154 153.5008 206.6508 15.50980373 95618

JSON: /api/v1/satellites/64894 · /tle

For live sub-satellite position, see the globe view (requires WebGL).

§ Visibility from observer

Set your observer location to see the next 7 days of passes ≥ 10°. The values pass through the URL so the page stays shareable.

No JS? Fill the form by hand. The geolocation button needs JavaScript.

§ Radio — SatNOGS DB

ModeDescriptionDownlinkUplink
GFSK Mode U - GFSK9k6 - AX.25 Beacon and Ham Payload (Geoscan framing) 436.436 MHz

1 transmitter · refreshed weekly from db.satnogs.org